Change the Weather History Date:

Tuesday, November 13, 2012

  Actual Average Record
Temperature  
Mean Temperature 45 °F 55 °F  
Max Temperature 56 °F 69 °F 85 °F (1964)
Min Temperature 33 °F 42 °F 25 °F (1911)
Degree Days  
Heating Degree Days 20 10  
Month to date heating degree days 137 112  
Since 1 July heating degree days 258 236  
Cooling Degree Days 0 1  
Month to date cooling degree days 4 13  
Year to date cooling degree days 2177 2026  
Moisture  
Dew Point 30 °F    
Average Humidity 61    
Maximum Humidity 89    
Minimum Humidity 32    
Precipitation  
Precipitation 0.00 in 0.16 in 4.21 in (1957)
Month to date precipitation 1.15 1.94  
Year to date precipitation 53.10 48.09  
Sea Level Pressure  
Sea Level Pressure 30.38 in    
Wind  
Wind Speed 9 mph (North)    
Max Wind Speed 25 mph    
Max Gust Speed 32 mph    
Visibility 10 miles    
Events      
T = Trace of Precipitation, MM = Missing Value Source: NWS Daily Summary

Daily Weather History Graph

Daily Weather History Graph

Search for Another Location

Airport or City:

Trip Planner

Search our weather history database for the weather conditions in past years. The results will help you decide how hot, cold, wet, or windy it might be!

Date:

Astronomy

Nov. 13, 2012 Rise Set
Actual Time 6:22 AM CST 4:55 PM CST
Civil Twilight 5:57 AM CST 5:21 PM CST
Nautical Twilight 5:27 AM CST 5:50 PM CST
Astronomical Twilight 4:58 AM CST 6:19 PM CST
Moon 6:00 AM CST (11/13) 4:50 PM CST (11/13)
Length of Visible Light 11h 24m
Length of Day
10h 32m
Waning Crescent, 0% of the Moon is Illuminated
Nov 13
Waning Crescent
Nov 13
New
Nov 20
First Quarter
Nov 28
Full
Dec 6
Last Quarter

Hourly Weather History & Observations

Time (CST) Temp. Windchill Dew Point Humidity Pressure Visibility Wind Dir Wind Speed Gust Speed Precip Events Conditions
12:58 AM 36.0 °F 29.6 °F 32.0 °F 86% 30.41 in 10.0 mi North 8.1 mph - N/A   Clear
1:58 AM 34.0 °F 28.0 °F 30.9 °F 89% 30.42 in 10.0 mi North 6.9 mph - N/A   Clear
2:58 AM 34.0 °F 29.8 °F 30.9 °F 89% 30.43 in 10.0 mi North 4.6 mph - N/A   Clear
3:58 AM 33.1 °F 27.7 °F 30.0 °F 89% 30.43 in 10.0 mi North 5.8 mph - N/A   Clear
4:58 AM 33.1 °F 26.1 °F 30.0 °F 89% 30.44 in 10.0 mi North 8.1 mph - N/A   Clear
5:58 AM 33.1 °F 26.9 °F 28.9 °F 85% 30.45 in 10.0 mi North 6.9 mph - N/A   Clear
6:58 AM 35.1 °F 27.9 °F 28.9 °F 78% 30.46 in 10.0 mi North 9.2 mph - N/A   Clear
7:58 AM 41.0 °F 34.7 °F 30.0 °F 65% 30.46 in 10.0 mi North 10.4 mph - N/A   Clear
8:58 AM 45.0 °F 37.9 °F 27.0 °F 49% 30.46 in 10.0 mi NNE 16.1 mph 24.2 mph N/A   Clear
9:58 AM 48.9 °F - 24.1 °F 38% 30.45 in 10.0 mi NNE 19.6 mph 27.6 mph N/A   Clear
10:58 AM 52.0 °F - 27.0 °F 38% 30.43 in 10.0 mi North 13.8 mph 19.6 mph N/A   Clear
11:58 AM 54.0 °F - 26.1 °F 34% 30.39 in 10.0 mi NNE 11.5 mph - N/A   Clear
12:58 PM 55.0 °F - 26.1 °F 33% 30.35 in 10.0 mi North 15.0 mph 23.0 mph N/A   Clear
1:58 PM 55.0 °F - 26.1 °F 33% 30.34 in 10.0 mi NNE 16.1 mph - N/A   Clear
2:58 PM 55.0 °F - 27.0 °F 34% 30.32 in 10.0 mi North 15.0 mph - N/A   Clear
3:58 PM 54.0 °F - 28.0 °F 37% 30.32 in 10.0 mi NNE 11.5 mph - N/A   Clear
4:58 PM 48.9 °F - 28.9 °F 46% 30.32 in 10.0 mi North 6.9 mph - N/A   Clear
5:58 PM 42.1 °F 38.4 °F 35.1 °F 76% 30.33 in 10.0 mi NNW 5.8 mph - N/A   Clear
6:58 PM 39.9 °F - 36.0 °F 86% 30.35 in 10.0 mi Calm Calm - N/A   Clear
7:58 PM 41.0 °F 35.8 °F 34.0 °F 76% 30.34 in 10.0 mi North 8.1 mph - N/A   Clear
8:58 PM 41.0 °F - 33.1 °F 73% 30.35 in 10.0 mi Calm Calm - N/A   Clear
9:58 PM 39.0 °F - 34.0 °F 82% 30.35 in 10.0 mi Calm Calm - N/A   Clear
10:58 PM 37.0 °F 34.5 °F 33.1 °F 86% 30.34 in 10.0 mi NNW 3.5 mph - N/A   Clear
11:58 PM 37.0 °F 33.3 °F 32.0 °F 82% 30.32 in 10.0 mi NNW 4.6 mph - N/A   Clear